Location: Newark
(25.4800°N, 85.7200°E)
Time: 11:12:11
(UTC+00:00)

Transit 4A - Pass Details

Date: 26 August 2019
Orbit: 865 x 979 km, 66.8° (Epoch: 22 September)

Event Time Altitude Azimuth Distance (km) Brightness Sun altitude
Rises 22:25:18 0° 312° (NW) 3,556 - -20.2°
Reaches altitude 10° 22:28:51 10° 292° (WNW) 2,586 - -19.5°
Maximum altitude 22:32:18 16° 256° (WSW) 2,166 - -18.8°
Drops below altitude 10° 22:35:42 10° 220° (SW) 2,538 - -18.1°
Sets 22:39:10 0° 199° (SSW) 3,456 - -17.3°
